Location: Gulgong NSW 2852, Australia
(32.2976°S, 149.5548°E)
Time: 23:54:44
(UTC+11:00)

X-37B - Pass Details

Date: 13 December 2021
Orbit: 334 x 337 km, 45.0° (Epoch: 11 January)

Event Time Altitude Azimuth Distance (km) Brightness Sun altitude
Exits shadow 03:29:32 22° 106° (ESE) 818 2.8 -23.5°
Drops below altitude 10° 03:30:45 10° 115° (ESE) 1,292 4.1 -23.3°
Sets 03:32:48 0° 120° (ESE) 2,137 5.5 -23.1°
